Waarnemingen

Advertentie
Mijn weer
Helsingborg, Zweden (2611): temperatuur & dauwpunt: 13.07.2018 07:00:00 - 19.07.2018 07:00:00 (CEST)Helsingborg, Zweden (2611): windsnelheid & windstoten: 13.07.2018 07:00:00 - 19.07.2018 07:00:00 (CEST)Helsingborg, Zweden (2611): windrichting: 13.07.2018 07:00:00 - 19.07.2018 07:00:00 (CEST)Helsingborg, Zweden (2611): luchtdruk: 13.07.2018 07:00:00 - 19.07.2018 07:00:00 (CEST)Helsingborg, Zweden (2611): zicht: 13.07.2018 07:00:00 - 19.07.2018 07:00:00 (CEST)Helsingborg, Zweden (2611): neerslag: 13.07.2018 07:00:00 - 19.07.2018 07:00:00 (CEST)
Datum & Tijd tt [°C] td [°C] ff [km/u] ff [kn] fx [km/u] fx [kn] dd ppp [hPa] vv [km] rr [mm]
19.07.2018 07:00:00 - - - - - - - - - -
19.07.2018 06:00:00 17,8 13,7 16 9 30 16 NW 1015,8 38 0,0
19.07.2018 05:00:00 18,0 14,5 16 9 29 16 NW 1015,6 39 0,0
19.07.2018 04:00:00 18,4 15,1 14 7 29 15 NW 1015,6 28 0,0
19.07.2018 03:00:00 18,6 15,3 15 8 33 18 NW 1015,7 27 0,0
19.07.2018 02:00:00 18,9 15,6 19 11 40 22 NW 1015,9 26 0,0
19.07.2018 01:00:00 19,3 15,8 18 10 40 22 NNW 1015,7 26 0,0
19.07.2018 00:00:00 19,8 16,1 19 10 39 21 NW 1015,3 29 0,0
18.07.2018 23:00:00 20,0 17,2 18 10 34 18 NNW 1014,8 18 0,0
18.07.2018 22:00:00 20,6 15,6 16 9 32 18 NNW 1014,5 50 0,0
18.07.2018 21:00:00 22,4 15,5 17 9 33 18 NNW 1014,2 46 0,0
18.07.2018 20:00:00 22,6 16,4 19 11 33 18 NNW 1014,0 41 0,0
18.07.2018 19:00:00 23,2 18,1 11 6 32 18 WNW 1013,7 32 0,0
18.07.2018 18:00:00 22,7 17,6 20 11 32 18 WNW 1013,6 34 0,0
18.07.2018 17:00:00 24,0 18,2 19 10 31 17 WNW 1013,3 31 0,0
18.07.2018 16:00:00 26,4 16,8 15 8 30 16 N 1013,2 31 0,0
18.07.2018 15:00:00 25,9 17,4 18 10 28 15 N 1013,2 31 0,0
18.07.2018 14:00:00 25,2 18,4 14 7 30 16 NW 1013,2 28 0,0
18.07.2018 13:00:00 24,1 18,3 16 9 30 16 NW 1013,3 28 0,0
18.07.2018 12:00:00 23,2 18,1 13 7 27 14 WNW 1013,0 27 0,0
18.07.2018 11:00:00 23,1 18,0 11 6 20 11 WNW 1012,9 34 0,0
18.07.2018 10:00:00 22,5 18,7 8 4 14 8 NNW 1013,0 26 0,0
18.07.2018 09:00:00 21,6 18,4 7 4 13 7 NNW 1012,7 19 0,0
18.07.2018 08:00:00 20,7 18,1 4 2 13 7 NW 1012,5 27 0,0
18.07.2018 07:00:00 20,0 18,0 5 3 11 6 NW 1012,4 29 0,0
18.07.2018 06:00:00 19,9 17,5 6 3 13 7 WNW 1012,4 41 0,0
18.07.2018 05:00:00 19,6 16,8 5 3 15 8 NW 1012,1 43 0,0
18.07.2018 04:00:00 19,2 16,8 9 5 15 8 NW 1011,9 43 0,0
18.07.2018 03:00:00 18,3 16,6 7 4 15 8 NW 1012,1 36 0,0
18.07.2018 02:00:00 18,6 16,6 7 4 15 8 NW 1012,4 43 0,0
18.07.2018 01:00:00 18,0 16,2 8 5 14 7 NNW 1012,4 42 0,0
18.07.2018 00:00:00 17,4 15,7 7 4 11 6 N 1012,7 33 0,0
17.07.2018 23:00:00 18,2 15,8 6 4 14 8 N 1012,6 35 0,0
17.07.2018 22:00:00 19,2 15,3 7 4 17 9 N 1012,8 45 0,0
17.07.2018 21:00:00 21,5 14,9 9 5 19 11 N 1012,5 45 0,0
17.07.2018 20:00:00 23,7 14,9 11 6 27 15 NNW 1012,2 43 0,0
17.07.2018 19:00:00 24,3 15,8 14 7 27 15 NNW 1012,3 41 0,0
17.07.2018 18:00:00 25,2 15,8 16 8 26 14 NNW 1012,5 41 0,0
17.07.2018 17:00:00 24,9 17,1 15 8 25 13 WNW 1012,3 36 0,0
17.07.2018 16:00:00 24,4 16,6 10 5 19 10 W 1012,4 36 0,1
17.07.2018 15:00:00 21,8 16,3 8 4 23 12 ZZW 1012,7 38 0,0
17.07.2018 14:00:00 21,6 16,1 14 8 24 13 ZZW 1012,7 33 0,0
17.07.2018 13:00:00 21,8 15,4 16 8 24 13 ZZW 1013,0 37 0,5
17.07.2018 12:00:00 25,5 13,4 9 5 15 8 ZW 1012,5 35 0,0
17.07.2018 11:00:00 27,1 11,6 4 2 12 6 ONO 1012,4 38 0,0
17.07.2018 10:00:00 27,1 14,1 3 1 8 4 NO 1012,3 40 0,0
17.07.2018 09:00:00 25,1 14,3 4 2 6 3 NO 1012,6 39 0,0
17.07.2018 08:00:00 20,7 18,8 3 2 6 3 NNO 1012,6 28 0,0
17.07.2018 07:00:00 18,7 18,0 3 2 5 3 N 1012,4 9 0,0
17.07.2018 06:00:00 17,3 16,7 0 0 4 2 N 1012,4 11 0,0
17.07.2018 05:00:00 16,8 16,0 0 0 5 3 N 1012,5 13 0,0
17.07.2018 04:00:00 17,5 16,5 3 1 6 4 NW 1012,6 20 0,0
17.07.2018 03:00:00 17,2 16,2 3 1 9 5 ONO 1013,0 23 0,0
17.07.2018 02:00:00 16,8 15,7 2 1 9 5 NNO 1013,1 27 0,0
17.07.2018 01:00:00 16,5 15,2 4 2 7 4 N 1013,4 32 0,0
17.07.2018 00:00:00 16,9 14,5 3 2 7 4 NNO 1013,6 43 0,0
16.07.2018 23:00:00 18,6 14,7 3 2 12 7 NW 1013,6 39 0,0
16.07.2018 22:00:00 20,2 14,8 4 2 20 11 NNW 1013,6 43 0,0
16.07.2018 21:00:00 22,3 14,2 9 5 20 11 N 1013,5 49 0,0
16.07.2018 20:00:00 25,3 14,4 11 6 22 12 N 1013,2 41 0,0
16.07.2018 19:00:00 24,8 16,8 10 5 25 13 WNW 1013,1 41 0,0
16.07.2018 18:00:00 25,3 16,7 12 7 28 15 WNW 1013,1 38 0,0
16.07.2018 17:00:00 25,7 16,3 14 8 29 16 WNW 1013,5 35 0,0
16.07.2018 16:00:00 24,9 15,8 19 10 27 15 WNW 1013,7 39 0,0
16.07.2018 15:00:00 26,2 16,2 14 7 31 17 W 1014,1 28 0,0
16.07.2018 14:00:00 25,1 15,7 15 8 31 17 WNW 1014,4 33 0,0
16.07.2018 13:00:00 25,2 16,3 16 9 27 14 W 1014,6 27 0,0
16.07.2018 12:00:00 27,6 15,6 12 7 23 13 NW 1014,7 33 0,0
16.07.2018 11:00:00 27,1 14,5 13 7 23 13 NNW 1014,9 27 0,0
16.07.2018 10:00:00 25,9 14,0 13 7 23 12 N 1015,1 31 0,0
16.07.2018 09:00:00 23,8 13,9 14 7 23 13 N 1015,4 34 0,0
16.07.2018 08:00:00 21,6 14,5 12 6 23 13 N 1015,5 37 0,0
16.07.2018 07:00:00 18,4 14,3 14 7 21 12 N 1015,9 31 0,0
16.07.2018 06:00:00 15,2 14,4 10 6 17 9 N 1016,1 13 0,0
16.07.2018 05:00:00 14,6 14,1 10 5 16 9 NNW 1016,1 9 0,0
16.07.2018 04:00:00 14,7 14,2 9 5 18 10 NNW 1016,2 8 0,0
16.07.2018 03:00:00 15,0 14,5 8 5 18 10 N 1016,3 7 0,0
16.07.2018 02:00:00 14,7 14,1 9 5 14 7 NNW 1016,5 7 0,0
16.07.2018 01:00:00 14,4 13,8 8 5 13 7 N 1016,5 8 0,0
16.07.2018 00:00:00 14,1 13,3 8 5 13 7 NNW 1016,6 13 0,0
15.07.2018 23:00:00 15,0 13,2 8 4 16 9 NNW 1016,3 22 0,0
15.07.2018 22:00:00 16,1 13,2 8 4 16 9 NNW 1016,3 34 0,0
15.07.2018 21:00:00 18,3 13,2 10 6 18 10 N 1016,1 48 0,0
15.07.2018 20:00:00 21,7 14,1 9 5 21 11 NNW 1015,9 38 0,0
15.07.2018 19:00:00 20,7 14,1 11 6 27 15 WNW 1016,2 35 0,0
15.07.2018 18:00:00 21,5 13,9 12 6 27 15 WNW 1016,5 34 0,0
15.07.2018 17:00:00 22,0 13,6 14 7 27 14 WNW 1016,8 32 0,0
15.07.2018 16:00:00 21,4 13,6 15 8 29 16 WNW 1016,8 33 0,0
15.07.2018 15:00:00 20,3 14,0 14 8 29 16 WNW 1017,1 38 0,0
15.07.2018 14:00:00 19,0 14,3 18 10 29 16 WNW 1017,3 36 0,0
15.07.2018 13:00:00 20,3 14,4 14 7 31 17 WNW 1017,4 30 0,0
15.07.2018 12:00:00 18,8 14,3 17 9 31 17 WNW 1017,4 31 0,0
15.07.2018 11:00:00 18,9 13,5 16 9 29 16 WNW 1017,3 40 0,0
15.07.2018 10:00:00 18,7 14,0 13 7 26 14 NW 1017,2 28 0,0
15.07.2018 09:00:00 19,1 12,8 11 6 25 13 NW 1016,8 39 0,0
15.07.2018 08:00:00 17,8 13,5 11 6 22 12 WNW 1016,7 32 0,0
15.07.2018 07:00:00 17,5 12,4 8 4 21 11 WNW 1016,4 50 -
15.07.2018 06:00:00 17,0 12,5 8 5 22 12 NW 1016,3 45 0,0
15.07.2018 05:00:00 16,7 12,0 11 6 22 12 WNW 1016,3 50 0,0
15.07.2018 04:00:00 16,9 12,4 11 6 21 11 WNW 1016,4 50 0,0
15.07.2018 03:00:00 16,5 13,4 8 4 14 8 W 1016,3 49 0,0
15.07.2018 02:00:00 12,6 11,7 4 2 8 4 NW 1016,4 41 0,0
15.07.2018 01:00:00 12,3 11,0 3 1 5 3 W 1016,5 48 0,0
15.07.2018 00:00:00 12,9 11,5 0 0 4 2 N 1016,7 43 0,0
14.07.2018 23:00:00 13,3 11,4 0 0 13 7 N 1016,7 43 0,0
14.07.2018 22:00:00 14,4 11,4 3 2 18 10 NNO 1016,6 45 0,0
14.07.2018 21:00:00 16,7 11,0 8 5 25 14 NNW 1016,5 45 0,0
14.07.2018 20:00:00 19,0 11,1 11 6 26 14 NW 1016,5 44 0,0
14.07.2018 19:00:00 19,5 10,8 16 8 28 15 NW 1016,7 44 0,0
14.07.2018 18:00:00 19,8 10,8 13 7 28 15 WNW 1016,8 37 0,0
14.07.2018 17:00:00 19,5 10,8 14 8 30 16 WNW 1017,0 33 0,0
14.07.2018 16:00:00 20,4 11,1 17 9 32 17 NW 1017,2 38 0,0
14.07.2018 15:00:00 21,2 11,2 14 8 32 17 NW 1017,3 43 0,0
14.07.2018 14:00:00 19,0 11,1 16 9 31 17 WNW 1017,7 35 0,0
14.07.2018 13:00:00 18,6 11,2 15 8 27 15 WNW 1017,8 35 0,0
14.07.2018 12:00:00 18,2 11,3 14 8 27 15 WNW 1018,0 40 0,0
14.07.2018 11:00:00 17,0 11,3 13 7 24 13 WNW 1017,9 38 0,0
14.07.2018 10:00:00 16,9 12,0 11 6 25 13 WNW 1017,8 35 0,0
14.07.2018 09:00:00 16,2 11,6 13 7 25 13 WNW 1017,5 43 0,0
14.07.2018 08:00:00 15,9 11,5 13 7 24 13 WNW 1017,5 34 0,0
14.07.2018 07:00:00 15,9 12,1 15 8 25 14 WNW 1017,1 40 0,0
14.07.2018 06:00:00 15,8 12,4 11 6 26 14 WNW 1017,1 38 0,0
14.07.2018 05:00:00 16,2 12,7 14 7 26 14 WNW 1016,9 41 0,0
14.07.2018 04:00:00 16,3 13,4 14 7 26 14 WNW 1016,7 31 0,0
14.07.2018 03:00:00 16,8 14,1 14 7 26 14 NW 1016,7 26 0,0
14.07.2018 02:00:00 17,1 14,6 11 6 23 12 NW 1016,6 25 0,0
14.07.2018 01:00:00 17,5 14,2 12 7 22 12 NW 1016,7 30 0,0
14.07.2018 00:00:00 18,0 14,1 11 6 21 11 NW 1016,5 33 0,0
13.07.2018 23:00:00 19,0 15,3 13 7 21 11 NW 1016,2 37 0,0
13.07.2018 22:00:00 19,9 16,1 9 5 20 11 WNW 1015,8 27 0,0
13.07.2018 21:00:00 21,0 15,3 10 6 21 11 WNW 1015,6 28 0,0
13.07.2018 20:00:00 22,7 15,0 10 6 25 13 WNW 1015,3 28 0,0
13.07.2018 19:00:00 23,1 14,6 14 8 31 17 WNW 1015,2 28 0,0
13.07.2018 18:00:00 23,5 14,5 15 8 32 17 NW 1015,5 26 0,0
13.07.2018 17:00:00 24,0 13,2 15 8 32 17 WNW 1015,6 34 0,0
13.07.2018 16:00:00 23,5 13,7 19 10 27 15 WNW 1015,5 34 0,0
13.07.2018 15:00:00 25,7 12,2 16 9 27 15 WNW 1015,2 40 0,0
13.07.2018 14:00:00 26,5 10,6 13 7 25 14 WNW 1015,3 38 0,0
13.07.2018 13:00:00 26,1 16,6 12 7 25 14 WNW 1015,4 24 0,0
13.07.2018 12:00:00 24,3 16,8 15 8 24 13 WNW 1015,4 29 0,0
13.07.2018 11:00:00 24,9 16,9 12 7 22 12 W 1015,2 28 0,0
13.07.2018 10:00:00 27,3 15,0 13 7 22 12 N 1015,0 31 0,0
13.07.2018 09:00:00 25,1 17,8 10 5 22 12 NNW 1015,2 27 0,0
13.07.2018 08:00:00 23,0 18,1 12 7 22 12 NNW 1015,0 37 0,0
13.07.2018 07:00:00 19,1 17,4 7 4 10 6 N 1014,8 23 0,0

tt = temperatuur
td = dauwpunt
ff = windsnelheid
fx = windstoten
dd = windrichting
ppp = luchtdruk
vv = zicht
rr = neerslag

Weerstations in de omgeving